THORAD DELTA 1 DEB, 8789

Orbit data source: Space-Track

THORAD DELTA 1 DEB, 8789 is space debris in SSO originally from a launch on Fri, 15 Nov 1974 UTC launched from the Air Force Western Test Range (AFWTR). Debris objects in space refer to the collection of defunct objects orbiting the Earth. Examples of debris include non-operational satellites, rocket bodies, and fragments generated from explosions, collisions, or faulty payload assembly.

Loading next visibility...
Identifier
8789, 1974-089DR
Orbit
SSO
Country
Flag of USUS
Related business
Manufacturer
Unknown
Mission
Spacecraft
Bus & Motor
Unknown
Mass
Unknown
Launch date (UTC)
1974-11-15 (52 years ago)
Launch vehicle
Unknown
Launch site
Air Force Western Test Range (AFWTR)
Object type
Payload
Rocket body
Debris
Shape & HBR
Unknown shape, 0.1 m
Radar Cross Section
Small (<0.1 m²)

Expand to show TLE details & history
Last TLE update: 20 hours ago

TLE from 20 hours ago
0 THORAD DELTA 1 DEB
1 08789U 74089DR  26144.37998326 -.00000020  00000-0  19489-3 0  9991
2 08789 102.1511  96.3981 0105480 294.3110 221.8338 12.38987851329495
Epoch: 2026-05-24T09:07Z
TLE epoch observation values (Epoch: 2026-05-24T09:07:10.553Z)
Latitude
24.08987°
Longitude
-96.88129°
Altitude
1,575.877 km
Speed
7.054 km/s
True Right ascension
18h 47m 34s
True Declination
23° 58' 31"
Sunlit
Object was in daylight at epoch
Visualization orbit readout
Latitude
Unknown
Longitude
Unknown
Altitude
Unknown
Speed
Unknown
Apparent Right ascension
Unknown
Apparent Declination
Unknown
Sunlit
N/A
Visualization observer readout
Local Sidereal Time
13:55:09
Azimuth
Unknown
Elevation
Unknown
Doppler factor
Unknown
Orbital elements
Apogee altitude
1,591.669 km
Perigee altitude
1,425.293 km
Semi-major axis
7,886.618 km
Eccentricity
0.01055
Inclination
102.1511°
RAAN
96.3981°
Arg. of periapsis
294.311°
True anomaly
221.03549°
Mean anomaly
221.8338°
Eccentric anomaly
221.43386°
Mean motion
3.0989 °/min
Orbital period
116.17 mins
BSTAR
0.00019489
Loading maneuver chart data...
Computing Atmospheric mass density...

Documentation

Showing up to 5 results
|